"Pseudo-MPEC" for LTKzzDH

Created 2022 Dec 9 2:22:10 UT using Find_Orb

Click here for an explanation of pseudo-MPECs

 
 Astrometry: 
     LTKzzDH &C2014 02 15%_DD@yPFbngAUe8#P5w)WW7RYKA2vgW!UyF/*lqx39-R+1(t.eReW84
     LTKzzDH &C2014 02 15*xMLdImu$sQ$s`.?W`RJm*V$2P2Q(QSg)Zmm]`ia3@?,MK7gWb[aW84
     LTKzzDH &C2016 02 14_MnLXQW1aE1.(Kwi^=/Dw6I5Xw9A;RHcX:j7XQ6C_H7a,TJ*,aSAW84
     LTKzzDH &C2016 02 14sY23Hvw(kg?#rUG1MoH5VW_`cn*sM_(i$*?U30v,4H5Yi^\Xnm/VW84
     LTKzzDH &C2016 02 15r#:l*p+2_/q$*5nj#,8PPPf.EY.5y1)EoyP(^`SbX7QM'TChFsQ_W84
     LTKzzDH &C2016 02 15Lv-Astrometry^-,o6Qdi'FMAyjTju'rPJ`PxX[]^WVk;cwdT()CW84
     LTKzzDH &C2016 02 290)K+)o_Mj@EtE_KCq,V6G3TyRb'[_kd0wG%6OpWtjV4oy+VYaNpcW84
     LTKzzDH &C2016 02 29;$bmfC(K5G6fH;VwegL0C:YBE5a=L$YP@c/Ax0WXsu08b\H,v(NuW84
     LTKzzDH &C2017 10 03q*65V:H`ZND7DvG!;ZNjjgRi^VKg+CKB2\6ZBq.yoFwEGR:''*KHW84
     LTKzzDH &C2017 12 11]+kua=m:hiL$%,FPnEE:BEbO_CVjIX'TIV@scZ;R,?1l?baea!a,W84
     LTKzzDH &C2018 01 05=6l;F6dX=\s4FQ]a)CZo6Ww?xZKpKq1K-O*Jmfw\hD3%_=It2_tCW84
     LTKzzDH &C2018 01 05\ma4'f*R]o$jDbnlNlNpjav)XE#D^wA@D).LImX-b\QaDF-Ll[w6W84
     LTKzzDH &C2018 09 09vs?/rC-VtOPsX^E'Q#hn:@/8@efQV'5u6arDqmsGf+_efkBU_\OHW84
     LTKzzDH* S2018 09 22uId:5oVkvE@3`91W`*XiqEUbg0!J9IybgmQ\#v3=b01sJoQP^Hu9C57
     LTKzzDH  s2018 09 22e$f@=j?W2WniT[kK[S5FL_oW5-ZdEZ$e!vU@g-35vAphF+u[+H@YC57
     LTKzzDH  S2018 09 22/-9M-8.f$/b3)T6QigM9/sD*/O,O)@_jYfRLtP)=3Dr#OaDVUSPyC57
     LTKzzDH  s2018 09 228_)xhf'WRn/$h'.L-%9+wp49;knHuG:redacted;4*9q1^(=R7u@C57
     LTKzzDH  S2018 09 22]F%c_d`VxSKCGMroh,S[cJFGRdyC9sawt@`3^C].nZUBS$d_XE\kC57
     LTKzzDH  s2018 09 22#5/VX#*t$n:7Sn[j)J2%W6iqHhs+4wtCS,F]Z;)nS\cheqPww.h@C57
     LTKzzDH  S2018 09 22Yj/ROC)#@]0AtDA6M6C/S15r(@JY(8Ta\cmf`wi4S!bxwRKgu5@,C57
     LTKzzDH  s2018 09 22$8iclickxbZTVuksiWY@F:TT;pR8IW%DFE+%8tWTP8/-3V1`v1T*C57
     LTKzzDH  S2018 09 23eo!=.JOgHOgST%'2YX$BekvEH-_D?9)*/*q.+8VZ%di^k!rIY:hJC57
     LTKzzDH  s2018 09 23k4LxMKqgTVP8X!c90wstfWfA)iD2%ihereFQgMV9:0oD'ED93A2-C57
     LTKzzDH  S2018 09 23.CM)Mq*K)c:)n[VKtK5io8Jonnb[6tixqp'xgeIp(=Swy0s[7=*)C57
     LTKzzDH  s2018 09 23ASR6;3iVXaM__n%c?-r*%\`SqxJ[k/3[K!anW?/^YIS^2LElxPL[C57
     LTKzzDH  S2018 09 23j%RB).$Nrk0wlqkJk!.JJ;b6A-(@].U(3aJppNEBtU?f0jqeSAiHC57
     LTKzzDH  s2018 09 23)Yj70NJeV8L[.v/-r]b7Jin:gG61J?j:0,$9WiIoo*WFnerQ'0UJC57
     LTKzzDH  S2018 09 232JeSK!dutUi+amDr6GA`Ry`FdXwkh-T1[.\\r2V'U;CI_;_a]E96C57
     LTKzzDH  s2018 09 23_9jE,w;;.vIE2u1i#f*F5D;O+RNxh47BR[B8Y]SA4VfRwi/dN/SLC57
     LTKzzDH  S2018 09 24J\1W1cEyTh+5dCn!Q65aVj9T3ra1%g6bxmMa8LoZW+DTSF+C5m%`C57
     LTKzzDH  s2018 09 24.9cTt_B0GtWt6pF+PWjO2DuqgdgD%u]BUkp;g[bb87R.779o(B[LC57
     LTKzzDH  S2018 09 24qR9[q[%PVr2.h'OICkbZCJL[cu=_ViV.\8Y=q/t4'`vJA%sdq5y:C57
     LTKzzDH  s2018 09 24`KO#Flc[?dr1D5)Scq5#G_DLXcCnb8.gAe34NiIHSAYQ1+tg@x4YC57
     LTKzzDH  S2018 09 24v;7_8_G*GhL3!`;DccR_w)pmhj5bB#A?3X1rZ;tHg-$'Hk@Pq*dLC57
     LTKzzDH  s2018 09 24jy5gWV`uC`xj!CQ%KSMps(Dfc8D'1s8qo[jUQB1ACUrHZPPS2PxxC57
     LTKzzDH  S2018 09 25*ajNWr:Q01E!/wDAAPkD0Kt`$`jV^Nq(OT(d]ia[0Y#`$GJOud.[C57
     LTKzzDH  s2018 09 25Tds\\U_e0UkN7Klu:SV%g3?k4ju/T)DcGqE]M^H]:9e+XZ3ek8R$C57
     LTKzzDH  S2018 09 27Wx9GMVVG?Wrd;EIc\=WHHuZ).ENRRX*EYWH5gITDus_AvI#9%;U9C57
     LTKzzDH  s2018 09 27x_LkYvu$0RE?)Tc%M#FI#`]1;vdY56xIN!N^-.*L88j=?G=BMt^3C57
     LTKzzDH  S2018 09 281I(b3bw$:$MhYUMgd1mI]sh*jd1dHDPKM8_i5c)mjK'FRH0c;ffSC57
     LTKzzDH  s2018 09 289.])rIGtGwFN5_=%HL8S8X!Hvq4bJMKfora0w0XrX/r,yW$XYX*KC57
     LTKzzDH  S2018 09 28^8dqm2md!/4(4Pm2`K*r4VY337klIvq.h[Y5HI5h+Jx6Y#@+8vdKC57
     LTKzzDH  s2018 09 28cUq/%Gg5bFJ0L$3;G??=UxtO^2%^hX/Q]VX$k@$o*Pt=EA5?`RN9C57
     LTKzzDH  S2018 09 28'$w9]SQ1`WH5a/*W94+0ZFS@R'YY_0sC$#OeZR'JXC3=MQ_7ee]+C57
     LTKzzDH  s2018 09 28jF?I+)v(G!+Qf@]GDojW2D^d)v)H3H.#HMM-0I62Jucjo89o\q\[C57
     LTKzzDH  S2018 09 30Ud+)g?QuByo-fswxwL;hB;Z5e`!Qp!!^]t62=i4fP_'S]Tn%Pd_eC57
     LTKzzDH  s2018 09 30OUP-v+#Qi`LYriI`US:o[m,i1?J^/%9f:DClg]rG/aJopWd?8WK[C57
     LTKzzDH  S2018 09 30M\TS`m@1U,S*LAgDBw+FFU#0upBQo7,#wy?=dO$j(.#u`ELEksUIC57
     LTKzzDH  s2018 09 30)P?%PpuAVR?/K6t:d]H[`xA`JexplanationA+CvT's,0D[Rgqd9C57
     LTKzzDH  S2018 09 30-^9v$773Q'T\$*k_0F@[rqIC[b+sU-O,egChtI.0'8UgHt3h6n;aC57
     LTKzzDH  s2018 09 30q8B3C;i*kup2r82Fa@0h2f/Z:B*kql04PS*?^OnTa@FMf-GPOY_9C57
     LTKzzDH  S2018 09 30V[o;g-CwAs*%lBT`P;Zvh]5P3nmLa#-14xKWOG*3LvV[6`vp]?ptC57
     LTKzzDH  s2018 09 30.F-Wm3KA)i/[o@0pJxv.W6n.`+MV[Vg8$!1OB:r+vg%`7O^4)lE?C57
     LTKzzDH  S2018 10 01;S%F5Lk:To;?D7Zqv08!pP*/3Uc,pqeqQCmE7;,A9wU0s?IN6SXyC57
     LTKzzDH  s2018 10 01qET4+%_pv7ps*1`1q\$ok5B18KGE]p]T^hYD_U[UO?K:Z\eaZ-PWC57
     LTKzzDH &C2018 10 22rB\sg?s7Nuka?PqT_t1:TG%J.:18K*Z-#!Lw8)%htf-$7b=76NQDW84
     LTKzzDH &C2018 11 17v1n^%%QPc1]ggcYFCGtc/R!KplaDx+t/S342dvOUc'P?$w9A`lv1W84
     LTKzzDH &C2018 11 17biL`g15vHdQ2(Ma]6XUq.tu_hpF4m1v\^6IIKyhsc?_ElG(\Y7-gW84
     LTKzzDH &C2018 12 01f\LTRLBE^'v.*yZ)g-F`mk,nMhMeu:QW@_0m'/Qy7'-AA%nOK.B=W84

Station data:
(C57) TESS.  Observer R. Vanderspek. Measurers J. Brown, E. Evans, E. Main,
   R.  Rios, J. Ruprecht, J. Vaillancourt, J. Varey, H. Viggh, D. Woods.
   0.10-m  f/1.4 reflector + CCD.
(W84) Cerro Tololo-DECam  (S30.169594 W70.806420)  Chile.  Observer S. Deen.
   4.0-m reflector + CCD.

Orbital elements:  LTKzzDH
   Perihelion 2016 Jun 30.26795 +/- 0.0207 TT =  6:25:51 (JD 2457569.76795)
Epoch 2018 Sep 30.0 TT = JDT 2458391.5                        AutoNEOCP
q   8.00183586 +/- 0.000217         (J2000 ecliptic)
H    9.5  G 0.15                    Peri.  263.88006 +/- 0.0011
                                    Node    24.99255 +/- 0.00034
e   1.0041239 +/- 0.000187          Incl.   78.41205 +/- 0.00018
25 of 38 observations 2014 Feb. 15-2018 Sept. 30; mean residual 2".10
Residuals in arcseconds: 
140215 W84  .48-  .23-    180922 C57  3.4+  2.9+    180928 C57( 6.9+  7.6-)   
140215 W84  .74-  .25-    180922 C57  2.9-  1.2-    180928 C57( 3.9+  6.9-)   
160214 W84  .89+  .28-    180922 C57  2.4+  3.4+    180928 C57  2.5+  2.0-    
160214 W84  .69+  .35-    180922 C57  4.6-  2.0-    180930 C57( .57-  6.2-)   
160215 W84  .55+  .31-    180923 C57  .78-  2.3-    180930 C57  1.9+  2.7-    
160215 W84  .66+  .21-    180923 C57  1.7+  1.2+    180930 C57  3.0-  .72-    
160229 W84  .10-  .11+    180923 C57( 4.7-  3.8+)   180930 C57  2.5-  2.4-    
160229 W84  .02-  .18+    180923 C57  1.4+  4.8+    181001 C57( 1.6+  5.9+)   
171003 W84  1.8+  1.1+    180924 C57( 4.8-  5.7+)   181022 W84( 4.1- 12.9+)   
171211 W84  4.1-  3.0+    180924 C57  4.5+  .13+    181117 W84( 5.7- 13.3+)   
180105 W84( 5.1-  5.2+)   180924 C57  1.0-  .38-    181117 W84( 5.8- 13.6+)   
180105 W84( 5.1-  5.3+)   180925 C57  1.2-  2.4-    181201 W84( 7.0- 14.3+)   
180909 W84( .60- 13.4+)   180927 C57  1.9+  2.3+    

Ephemerides (geocentric):
Date (UTC) HH   RA             Dec           delta  r     elong  mag " sig PA
---- --------  ------------   ------------  ------ ------ -----  --- --------
2022 12 09 02  01 27 30.766   +00 13 15.59  14.914 15.476 123.3 21.7 10.1 161
2022 12 09 03  01 27 30.373   +00 13 17.25  14.915 15.476 123.2 21.7 10.1 161
2022 12 09 04  01 27 29.982   +00 13 18.92  14.915 15.476 123.2 21.7 10.1 161
2022 12 09 05  01 27 29.590   +00 13 20.59  14.916 15.477 123.1 21.7 10.1 161
2022 12 09 06  01 27 29.199   +00 13 22.26  14.917 15.477 123.1 21.7 10.1 161
2022 12 09 07  01 27 28.809   +00 13 23.93  14.918 15.477 123.0 21.7 10.1 161
2022 12 09 08  01 27 28.419   +00 13 25.61  14.919 15.477 123.0 21.7 10.1 161
2022 12 09 09  01 27 28.029   +00 13 27.29  14.919 15.477 123.0 21.7 10.1 161
2022 12 09 10  01 27 27.640   +00 13 28.97  14.920 15.478 122.9 21.7 10.1 161
2022 12 09 11  01 27 27.251   +00 13 30.66  14.921 15.478 122.9 21.7 10.1 161
2022 12 09 12  01 27 26.862   +00 13 32.34  14.922 15.478 122.8 21.7 10.1 161
2022 12 09 13  01 27 26.474   +00 13 34.03  14.923 15.478 122.8 21.7 10.1 161
2022 12 09 14  01 27 26.087   +00 13 35.72  14.923 15.478 122.7 21.7 10.1 161
2022 12 09 15  01 27 25.699   +00 13 37.42  14.924 15.478 122.7 21.7 10.1 161
2022 12 09 16  01 27 25.312   +00 13 39.12  14.925 15.479 122.7 21.7 10.1 161
2022 12 09 17  01 27 24.926   +00 13 40.82  14.926 15.479 122.6 21.7 10.1 161
2022 12 09 18  01 27 24.540   +00 13 42.52  14.926 15.479 122.6 21.7 10.1 161
2022 12 09 19  01 27 24.154   +00 13 44.23  14.927 15.479 122.5 21.7 10.1 161
2022 12 09 20  01 27 23.769   +00 13 45.93  14.928 15.479 122.5 21.7 10.1 161
2022 12 09 21  01 27 23.384   +00 13 47.65  14.929 15.480 122.4 21.7 10.1 161
2022 12 09 22  01 27 23.000   +00 13 49.36  14.930 15.480 122.4 21.7 10.1 161
2022 12 09 23  01 27 22.616   +00 13 51.08  14.930 15.480 122.4 21.7 10.1 161
2022 12 10 00  01 27 22.232   +00 13 52.79  14.931 15.480 122.3 21.7 10.1 161
2022 12 10 01  01 27 21.849   +00 13 54.52  14.932 15.480 122.3 21.7 10.1 161
2022 12 10 02  01 27 21.466   +00 13 56.24  14.933 15.480 122.2 21.7 10.1 161
2022 12 10 03  01 27 21.083   +00 13 57.97  14.933 15.481 122.2 21.7 10.1 161
2022 12 10 04  01 27 20.701   +00 13 59.69  14.934 15.481 122.1 21.7 10.1 161
2022 12 10 05  01 27 20.320   +00 14 01.43  14.935 15.481 122.1 21.7 10.1 161
2022 12 10 06  01 27 19.939   +00 14 03.16  14.936 15.481 122.1 21.7 10.1 161
2022 12 10 07  01 27 19.558   +00 14 04.90  14.937 15.481 122.0 21.7 10.1 161
2022 12 10 08  01 27 19.177   +00 14 06.64  14.937 15.482 122.0 21.7 10.1 161
2022 12 10 09  01 27 18.797   +00 14 08.38  14.938 15.482 121.9 21.7 10.1 161
2022 12 10 10  01 27 18.418   +00 14 10.13  14.939 15.482 121.9 21.7 10.1 161
2022 12 10 11  01 27 18.039   +00 14 11.87  14.940 15.482 121.8 21.7 10.1 161
2022 12 10 12  01 27 17.660   +00 14 13.62  14.941 15.482 121.8 21.7 10.1 161
2022 12 10 13  01 27 17.281   +00 14 15.38  14.941 15.482 121.8 21.7 10.1 161
2022 12 10 14  01 27 16.903   +00 14 17.13  14.942 15.483 121.7 21.7 10.1 161
2022 12 10 15  01 27 16.526   +00 14 18.89  14.943 15.483 121.7 21.7 10.1 161
2022 12 10 16  01 27 16.149   +00 14 20.65  14.944 15.483 121.6 21.7 10.1 161
2022 12 10 17  01 27 15.772   +00 14 22.41  14.945 15.483 121.6 21.7 10.1 161
2022 12 10 18  01 27 15.396   +00 14 24.18  14.945 15.483 121.5 21.7 10.1 161
2022 12 10 19  01 27 15.020   +00 14 25.95  14.946 15.483 121.5 21.7 10.1 161
2022 12 10 20  01 27 14.644   +00 14 27.72  14.947 15.484 121.5 21.7 10.1 161
2022 12 10 21  01 27 14.269   +00 14 29.49  14.948 15.484 121.4 21.7 10.1 161
2022 12 10 22  01 27 13.894   +00 14 31.27  14.948 15.484 121.4 21.7 10.1 161
2022 12 10 23  01 27 13.520   +00 14 33.05  14.949 15.484 121.3 21.7 10.1 161
2022 12 11 00  01 27 13.146   +00 14 34.83  14.950 15.484 121.3 21.7 10.1 161
2022 12 11 01  01 27 12.773   +00 14 36.62  14.951 15.485 121.2 21.7 10.1 161